Location: Peach Mountain Observatory
(42.3967°N, 83.9367°W)
Time: 14:37:51
(UTC-05:00)

S-56A Canister/Altair - Pass Details

Date: 28 January 2020
Orbit: 633 x 2499 km, 38.9° (Epoch: 19 February)

Event Time Altitude Azimuth Distance (km) Brightness Sun altitude
Rises 19:51:28 0° 240° (WSW) 4,670 12.6 -23.5°
Reaches altitude 10° 19:55:10 10° 236° (SW) 3,377 11.6 -24.2°
Maximum altitude 20:02:42 48° 165° (SSE) 1,273 8.4 -25.6°
Enters shadow 20:03:27 45° 144° (SE) 1,271 8.3 -25.8°
Drops below altitude 10° 20:07:57 10° 92° (E) 2,356 - -26.6°
Sets 20:10:07 0° 86° (E) 3,151 - -27.0°
